This is the latest recevied weather packets stored in our database for station/object PA1CD-13. If no packets are shown the sender has not sent any weather packets the latest 10 day(s).
| Time | Temp. | Humidity | Pressure | Rain* | Wind** | Luminosity | Snow |
|---|---|---|---|---|---|---|---|
| 1777530321 | 9.44° C | 68% | 1029.6 hPa | 0 mm | - | 262 W/m² | - |
| 1777530202 | 9.44° C | 68% | 1029.6 hPa | 0 mm | - | 264 W/m² | - |
| 1777530080 | 9.44° C | 68% | 1029.6 hPa | 0 mm | - | 262 W/m² | - |
| 1777529960 | 9.44° C | 68% | 1029.7 hPa | 0 mm | - | 262 W/m² | - |
| 1777529841 | 9.44° C | 68% | 1029.5 hPa | 0 mm | - | 255 W/m² | - |
| 1777529722 | 8.89° C | 68% | 1029.6 hPa | 0 mm | - | 248 W/m² | - |
| 1777529600 | 8.89° C | 68% | 1029.6 hPa | 0 mm | - | 246 W/m² | - |
| 1777529480 | 8.89° C | 67% | 1029.5 hPa | 0 mm | - | 241 W/m² | - |
| 1777529360 | 8.33° C | 67% | 1029.5 hPa | 0 mm | - | 227 W/m² | - |
| 1777529240 | 8.33° C | 67% | 1029.5 hPa | 0 mm | - | 227 W/m² | - |
| 1777529120 | 8.33° C | 65% | 1029.4 hPa | 0 mm | - | 209 W/m² | - |
| 1777529000 | 8.33° C | 65% | 1029.4 hPa | 0 mm | - | 209 W/m² | - |
| 1777528881 | 8.33° C | 65% | 1029.4 hPa | 0 mm | - | 209 W/m² | - |
| 1777528760 | 7.78° C | 62% | 1029.4 hPa | 0 mm | - | 193 W/m² | - |
| 1777528640 | 7.78° C | 62% | 1029.4 hPa | 0 mm | - | 190 W/m² | - |
| 1777528520 | 7.78° C | 57% | 1029.4 hPa | 0 mm | - | 188 W/m² | - |
| 1777528399 | 7.78° C | 57% | 1029.4 hPa | 0 mm | - | 183 W/m² | - |
| 1777528282 | 7.22° C | 55% | 1029.3 hPa | 0 mm | - | 176 W/m² | - |
| 1777528160 | 7.22° C | 55% | 1029.4 hPa | 0 mm | - | 176 W/m² | - |
| 1777528041 | 7.22° C | 52% | 1029.3 hPa | 0 mm | - | 169 W/m² | - |
| 1777527919 | 7.22° C | 50% | 1029.3 hPa | 0 mm | - | 162 W/m² | - |
| 1777527800 | 6.67° C | 50% | 1029.3 hPa | 0 mm | - | 158 W/m² | - |
| 1777527679 | 6.67° C | 47% | 1029.3 hPa | 0 mm | - | 146 W/m² | - |
| 1777527559 | 6.67° C | 47% | 1029.2 hPa | 0 mm | - | 146 W/m² | - |
| 1777527439 | 6.67° C | 46% | 1029.2 hPa | 0 mm | - | 139 W/m² | - |
* Rain latest hour (hover to see other rain measurements)
** Current wind speed in m/s (hover to see current wind gust speed)